Miscellaneous Local Product
Issued by NWS Hastings, NE

Home | Current Version | Previous Version | Text Only | Print | Product List | Glossary Off
Versions: 1 2 3 4 5 6 7 8 9 10 11 12 13 14 15 16 17 18 19 20 21 22 23 24 25 26 27 28 29 30 31 32 33 34 35 36 37 38 39 40 41 42 43 44 45 46 47 48 49 50

820
AXUS43 KGID 260802
MISGRI

GID CWA HOURLY WEATHER ROUNDUP
NATIONAL WEATHER SERVICE HASTINGS NE
300 AM CDT THU MAY 26 2016

NOTE: "FAIR" INDICATES FEW OR NO CLOUDS BELOW 12,000 FEET WITH NO
SIGNIFICANT WEATHER AND/OR OBSTRUCTIONS TO VISIBILITY.

...SOUTH CENTRAL NEBRASKA...

CITY           SKY/WX    TMP DP  RH WIND       PRES   REMARKS
GRAND ISLAND   CLEAR     57  53  86 N7        29.85R
HASTINGS       CLEAR     57  52  83 CALM      29.84R
KEARNEY        PTCLDY    57  50  77 E7        29.88R
ORD            CLEAR     56  52  86 NW7       29.87S
YORK           PTCLDY    59  54  82 N6        29.84F
AURORA         CLEAR     59  55  85 SE3       29.85S
LEXINGTON      CLEAR     55  50  84 N7        29.86F
HOLDREGE       CLEAR     60  48  65 CALM      29.84S
HEBRON         CLEAR     58  54  87 CALM      29.84F

...NEBRASKA PANHANDLE...

CITY           SKY/WX    TMP DP  RH WIND       PRES   REMARKS
CHADRON        CLEAR     43  39  86 S3        29.90F
ALLIANCE       CLOUDY    44  41  89 SW6       29.92R
SCOTTSBLUFF    CLEAR     46  42  86 NW5       29.94S
SIDNEY         CLOUDY    48  44  86 W3        29.97R

...WESTERN AND NORTH CENTRAL NEBRASKA...

CITY           SKY/WX    TMP DP  RH WIND       PRES   REMARKS
VALENTINE      PTCLDY    50  46  86 CALM      29.88F
AINSWORTH      CLEAR     52  48  86 CALM      29.89R
ONEILL         PTCLDY    56  51  86 CALM      29.88F
BROKEN BOW     MOCLDY    57  50  77 VRB3      29.84F
IMPERIAL       CLEAR     52  48  86 W5        29.92S
NORTH PLATTE   CLEAR     50  48  93 CALM      29.87F
MCCOOK         CLEAR     52  49  89 W7        29.89R

...EASTERN NEBRASKA...

CITY           SKY/WX    TMP DP  RH WIND       PRES   REMARKS
NORFOLK        PTCLDY    55  53  93 W6        29.83F
SO SIOUX CITY  CLOUDY    61  58  90 NW10G18   29.80F
TEKAMAH        CLOUDY    60  56  86 N8        29.82R
COLUMBUS       PTCLDY    59  48  67 CALM      29.83F
ALBION         MOCLDY    55  52  88 NW6       29.86F
OMAHA EPPLEY   CLOUDY    64  58  80 E13G23    29.88R
OFFUTT AFB     PTCLDY    64  60  87 N7        29.86R
MILLARD        CLOUDY    62  58  86 E5        29.85R
LINCOLN        CLEAR     62  55  77 NW5       29.83F
NEBRASKA CITY  CLEAR     66  62  87 NW3       29.83F
BEATRICE       CLEAR     59  57  91 CALM      29.83F
FALLS CITY     CLEAR     63  61  93 CALM      29.83R

...NORTHERN KANSAS...

CITY           SKY/WX    TMP DP  RH WIND       PRES   REMARKS
GOODLAND       PTCLDY    49  47  93 N6        29.92F
HILL CITY      CLEAR     53  50  89 E3        29.88F
NORTON         SUNNY     55  46  71 S5        29.87S
PHILLIPSBURG   CLEAR     54  54 100 CALM      29.86F
SMITH CENTER   CLEAR     54  50  87 E6        29.85S
BELOIT         CLEAR     57  54  88 CALM      29.84S
HAYS           CLEAR     52  48  87 E9        29.85F
RUSSELL        CLEAR     61  56  83 E14       29.83F
CONCORDIA      CLEAR     59  54  83 NE5       29.84F
SALINA         CLEAR     69  64  84 NE6       29.85S
TOPEKA         LGT RAIN  72  64  76 SW8       29.82F



USA.gov is the U.S. government's official web portal to all federal, state and local government web resources and services.